EW9082 Weather Reports


time (UTC)temp
C
wind
direction
speed
KPH
gust
KPH
rain 1hr
cm
rain 24hr
cm
rain mn
cm
humidity
%
barometer
mb
20260507020043 12 103 1.6 14.5 0.00 0.41 0.41 96 1008.5
20260507014543 12 153 3.2 14.5 0.00 0.41 0.41 96 1008.7
20260507013038 12 196 6.4 14.5 0.00 0.41 0.41 96 1008.7
20260507011542 12 205 1.6 9.7 0.00 0.41 0.41 96 1008.9
20260507010042 12 117 3.2 12.9 0.00 0.41 0.41 96 1009.1
20260507004535 12 160 3.2 12.9 0.00 0.41 0.41 96 1009.0
20260507003033 12 210 3.2 11.3 0.00 0.41 0.41 96 1008.9
20260507001516 12 188 4.8 12.9 0.00 0.41 0.41 96 1008.9
20260507000013 12 197 3.2 12.9 0.03 0.41 0.41 96 1009.0
20260506234607 12 206 3.2 16.1 0.05 0.41 0.41 96 1008.9
20260506233102 12 252 6.4 22.5 0.13 0.41 0.41 96 1009.0
20260506231538 12 149 6.4 20.9 0.23 0.41 0.41 96 1009.0
20260506230042 12 154 1.6 11.3 0.30 0.38 0.38 96 1008.9
20260506224517 12 143 3.2 11.3 0.30 0.36 0.36 96 1008.9
20260506223014 12 155 4.8 12.9 0.23 0.28 0.28 95 1009.0
20260506221554 12 189 4.8 12.9 0.15 0.18 0.18 95 1009.0
20260506220053 12 80 1.6 12.9 0.05 0.08 0.08 95 1009.5
20260506214532 12 203 1.6 14.5 0.03 0.05 0.05 95 1009.4
20260506213032 12 168 3.2 9.7 0.03 0.05 0.05 94 1009.6
20260506211515 12 174 3.2 11.3 0.00 0.03 0.03 93 1009.7
20260506210015 12 169 3.2 11.3 0.00 0.03 0.03 93 1009.8
20260506204511 13 78 3.2 17.7 0.03 0.03 0.03 92 1009.9
20260506203013 13 121 3.2 14.5 0.03 0.03 0.03 91 1010.1
20260506201512 13 156 6.4 16.1 0.03 0.03 0.03 91 1010.1
20260506200011 13 213 6.4 27.4 0.03 0.03 0.03 91 1010.2
20260506194507 14 155 3.2 24.1 0.00 0.00 0.00 89 1010.3
20260506193006 15 110 6.4 17.7 0.00 0.00 0.00 86 1010.4
20260506191548 15 151 9.7 19.3 0.00 0.00 0.00 83 1010.4
20260506190045 15 150 6.4 25.7 0.00 0.00 0.00 82 1010.4
20260506184528 16 174 6.4 19.3 0.00 0.00 0.00 82 1010.5
20260506183029 16 59 9.7 27.4 0.00 0.00 0.00 81 1010.7
20260506181509 16 128 4.8 20.9 0.00 0.00 0.00 81 1010.9
20260506180008 16 168 6.4 17.7 0.00 0.00 0.00 80 1011.0
20260506174601 16 125 6.4 22.5 0.00 0.00 0.00 79 1011.3
20260506173125 17 166 4.8 22.5 0.00 0.00 0.00 78 1011.5
20260506171553 17 212 8.0 22.5 0.00 0.00 0.00 77 1011.6
20260506170051 17 85 9.7 27.4 0.00 0.00 0.00 77 1011.6
20260506164550 17 198 8.0 25.7 0.00 0.00 0.00 78 1011.8
20260506163053 17 197 8.0 17.7 0.00 0.00 0.00 78 1012.1
20260506161548 17 230 6.4 20.9 0.00 0.00 0.00 77 1012.1
20260506160047 18 167 1.6 24.1 0.00 0.00 0.00 76 1012.3
20260506154530 17 86 8.0 25.7 0.00 0.00 0.00 76 1012.5
20260506153040 17 206 9.7 25.7 0.00 0.00 0.00 77 1012.4
20260506151526 17 153 6.4 29.0 0.00 0.00 0.00 77 1012.5
20260506150025 17 221 9.7 24.1 0.00 0.00 0.00 78 1012.8
20260506144537 17 217 6.4 16.1 0.00 0.00 0.00 78 1012.5
20260506143024 17 209 6.4 19.3 0.00 0.00 0.00 79 1012.6
20260506141526 17 201 4.8 22.5 0.00 0.00 0.00 79 1012.7
20260506140040 17 212 6.4 22.5 0.00 0.00 0.00 78 1012.4
20260506134530 17 195 11.3 22.5 0.00 0.00 0.00 79 1012.7
20260506133020 16 84 9.7 29.0 0.00 0.00 0.00 81 1013.0
20260506131523 16 155 8.0 22.5 0.00 0.00 0.00 82 1013.0
20260506130016 15 210 4.8 19.3 0.00 0.00 0.00 84 1013.0
20260506124513 15 214 11.3 24.1 0.00 0.00 0.00 85 1013.0
20260506123014 15 139 8.0 20.9 0.00 0.00 0.00 86 1013.0
20260506121554 15 176 8.0 20.9 0.00 0.00 0.00 88 1013.0
20260506120046 13 179 8.0 20.9 0.00 0.00 0.00 89 1013.1
20260506114533 13 132 6.4 22.5 0.00 0.00 0.00 89 1013.4
20260506113036 13 63 6.4 22.5 0.00 0.00 0.00 90 1013.3
20260506111533 13 180 6.4 12.9 0.00 0.00 0.00 90 1013.5
20260506110040 13 177 4.8 16.1 0.00 0.00 0.00 90 1013.4
20260506104530 13 129 3.2 20.9 0.00 0.00 0.00 91 1013.2
20260506103029 13 194 8.0 19.3 0.00 0.00 0.00 91 1013.2
20260506101533 13 152 4.8 17.7 0.00 0.00 0.00 91 1013.1
20260506100027 13 148 3.2 17.7 0.00 0.00 0.00 91 1013.0
20260506094527 13 77 6.4 17.7 0.00 0.00 0.00 91 1012.9
20260506093004 13 210 6.4 12.9 0.00 0.00 0.00 91 1013.1
20260506091503 13 184 4.8 14.5 0.00 0.00 0.00 91 1013.1
20260506090043 13 172 4.8 16.1 0.00 0.00 0.00 91 1013.2
20260506084542 13 159 3.2 14.5 0.00 0.00 0.00 90 1013.3
20260506083030 13 214 1.6 16.1 0.00 0.00 0.00 90 1013.5
20260506081523 13 223 1.6 11.3 0.00 0.00 0.00 90 1013.5
20260506073008 13 165 4.8 14.5 0.00 0.00 0.00 90 1013.4
20260506071506 13 193 4.8 11.3 0.00 0.00 0.00 90 1013.4
20260506061558 13 131 4.8 16.1 0.00 0.00 0.00 87 1013.3
20260506044533 13 178 4.8 14.5 0.00 0.00 0.00 86 1014.0
20260506043023 13 211 11.3 22.5 0.00 0.00 0.00 86 1014.1
20260506041522 13 203 4.8 12.9 0.00 0.00 0.00 87 1014.0
20260506040021 12 101 1.6 9.7 0.00 0.00 0.00 87 1014.0
20260506034522 12 108 0.0 8.0 0.00 0.00 0.00 86 1014.0
20260506033008 12 102 3.2 8.0 0.00 0.00 0.00 85 1013.9
20260506031511 13 172 3.2 11.3 0.00 0.00 0.00 83 1013.7
20260506030007 13 82 1.6 16.1 0.00 0.00 0.00 82 1013.7
20260506024508 13 140 0.0 14.5 0.00 0.00 0.00 80 1013.7
20260506023005 14 91 6.4 16.1 0.00 0.00 0.00 80 1013.6
20260506021506 13 191 4.8 12.9 0.00 0.00 0.00 80 1013.7